Flag for U.S.A. Weather past 2 weeks in Pueblo, Colorado, U.S.A.

26 °F

Snow. Ice fog.

Feels Like: 17 °F
Forecast: 20 / 25 °F
Wind: 9 mph from East

Location: Pueblo Memorial Airport

Current Time: Nov 26, 2015 at 7:52:55 PM

Latest Report: Nov 26, 2015 at 6:53 PM

Visibility: 0 mi

Pressure: 30.37 "Hg (25.34 "Hg at 1430m altitude)

Humidity: 84%

Dew point: 22 °F

Location of PuebloLocation

Historic Weather in Pueblo — Graph


Pueblo temperature yesterday

Maximum temperature yesterday: 66 °F (at 12:53 PM)
Minimum temperature yesterday: 24 °F (at 2:53 AM)
Average temperature yesterday: 41 °F

Past Weeks' High & Low Weather Summary

High70 °F (Nov 22, 1:53 PM)85% (Nov 26, 8:01 AM)30.48 "Hg (Nov 26, 8:01 AM)
Low15 °F (Nov 22, 4:53 AM)7% (Nov 22, 1:53 PM)29.25 "Hg (Nov 16, 12:53 PM)
Average40 °F43%29.94 "Hg
* Reported Nov 11 5:53 PM — Nov 26 5:53 PM, Pueblo, Weather by CustomWeather, © 2015

Note: Actual official high and low records may vary slightly from our data, if they occured in-between our weather recording intervals... More about our weather records


Pueblo weather history for previous 24 hours

Time TempWeatherWind HumidityBarometerVisibility
5:53 PM
Thu, Nov 26
28 °FLight snow. Overcast.13 mph75%30.33 "Hg7 mi
4:53 PM29 °FLight snow. Mostly cloudy.14 mph75%30.30 "Hg7 mi
3:53 PM30 °FCloudy.15 mph75%30.27 "Hg10 mi
3:01 PM31 °FMore clouds than sun.13 mph76%30.18 "Hg9 mi
1:53 PM30 °FMostly cloudy.14 mph82%30.23 "Hg8 mi
12:53 PM32 °FLight snow. Overcast.10 mph75%30.21 "Hg6 mi
11:53 AM32 °FLight snow. Overcast.12 mph73%30.21 "Hg9 mi
10:53 AM33 °FCloudy.10 mph70%30.22 "Hg10 mi
10:01 AM32 °FCloudy.13 mph75%30.19 "Hg10 mi
8:53 AM31 °FMostly cloudy.12 mph82%30.22 "Hg7 mi
8:01 AM30 °FLight snow. Ice fog.8 mph85%30.15 "Hg2 mi
6:53 AM30 °FOvercast.6 mph82%30.17 "Hg10 mi
5:53 AM31 °FMostly cloudy.8 mph79%30.13 "Hg10 mi
4:53 AM31 °FLight snow. Overcast.6 mph82%30.09 "Hg5 mi
3:53 AM31 °FOvercast.7 mph76%30.04 "Hg10 mi
2:53 AM31 °FOvercast.6 mph76%29.99 "Hg10 mi
1:53 AM32 °FOvercast.6 mph69%29.98 "Hg10 mi
12:53 AM33 °FOvercast.8 mph70%29.98 "Hg10 mi
11:53 PM
Wed, Nov 25
33 °FOvercast.12 mph70%29.98 "Hg10 mi
10:53 PM34 °FOvercast.13 mph70%30.00 "Hg10 mi
9:53 PM35 °FMostly cloudy.10 mph67%30.01 "Hg10 mi
8:53 PM36 °FOvercast.12 mph64%30.01 "Hg10 mi
7:53 PM37 °FOvercast.10 mph62%30.03 "Hg10 mi
Weather by CustomWeather, © 2015

See weather overviewHow to use our weather pages